Regional Weather Roundup
Issued by NWS

Home | Current Version | Previous Version | Graphics & Text | Print | Product List | Glossary On
Versions: 1 2 3 4 5 6 7 8 9 10 11 12 13 14 15 16 17 18 19 20 21 22 23 24 25 26 27 28 29 30 31 32 33 34 35 36 37 38 39 40 41 42 43 44 45 46 47 48 49 50
000
ASUS45 KSLC 280210
RWRUT

UTAH REGIONAL WEATHER ROUNDUP
NATIONAL WEATHER SERVICE SALT LAKE CITY UT
800 PM MDT TUE JUN 27 2017

UTZ001>011-023>025-280300-

NORTHERN UTAH

CITY           SKY/WX    TMP DP  RH WIND       PRES   REMARKS
HILL AFB       CLEAR     83  34  17 SW5       29.90F
LOGAN          SUNNY     79  43  27 N10       29.89R
OGDEN          SUNNY     84  35  17 SW7       29.87F
SALT LAKE CITY PTCLDY    87  30  13 N9        29.85F
TOOELE VALLEY  SUNNY     82  37  20 NE9       29.87F
WENDOVER         N/A     89  27  10 W15G23    29.85R
WEST JORDAN    CLEAR     83  48  29 N10       29.90S

$$

UTZ011>015-024>027-280300-

CENTRAL/NORTHEAST UTAH

CITY           SKY/WX    TMP DP  RH WIND       PRES   REMARKS
PROVO AIRPORT  CLEAR     85  36  17 NW10      29.87F
MOAB/CANYONLAN PTCLDY    93   9   4 SW10      29.76R
PRICE          CLEAR     84  31  14 NW13G18   29.94R
VERNAL         CLEAR     85  33  15 W18       29.87R

$$

UTZ013>016-019>022-027-280300-

SOUTHERN UTAH

CITY           SKY/WX    TMP DP  RH WIND       PRES   REMARKS
BRYCE CANYON   PTCLDY    75  18  11 W12       30.12R
CEDAR CITY     CLEAR     86  20   9 SW14      29.95S
MILFORD        PTCLDY    92  21   7 SW20G35   29.85R
ST GEORGE      CLEAR     99  23   6 W14       29.75S HX  92

$$

REGIONAL REPORTS     COLORADO/ARIZONA

CITY           SKY/WX    TMP DP  RH WIND       PRES   REMARKS
CRAIG, CO      CLOUDY    75  37  25 SW7       29.95R
GRAND JUNCTION CLEAR     91  21   8 SW9       29.80S
RIFLE, CO      CLEAR     87  16   7 NW6       29.87R
MONTROSE, CO   CLEAR     87  17   7 W10       29.90F
CORTEZ, CO     CLEAR     85  13   7 W6        29.96S
PAGE, AZ       CLEAR     96  11   4 W13G20    29.82R
GRAND CANYON   CLEAR     82   7   6 SW13      30.09S
KINGMAN, AZ    CLEAR     97  14   5 W21G26    29.84F HX  90
FLAGSTAFF, AZ  CLEAR     77   1   5 SW21      30.15R

$$

REGIONAL REPORTS    NEVADA/IDAHO/WYOMING

CITY           SKY/WX    TMP DP  RH WIND       PRES   REMARKS
LAS VEGAS, NV  SUNNY    104   4   2 W15G21    29.69S HX  95
ELY, NY        SUNNY     84  31  14 N9G21     29.98S
ELKO, NV       SUNNY     84  16   8 W10       29.94S
POCATELLO, ID  MOSUNNY   78  41  26 SW18      29.89F
BURLEY, ID     SUNNY     78  45  30 W7        29.86F
EVANSTON, WY   CLEAR     71  33  24 W12       30.07S
ROCK SPRINGS,  CLEAR     73  35  25 NW22      30.01R

$$



USA.gov is the U.S. government's official web portal to all federal, state and local government web resources and services.